sat.trackr.live / text

‹ back to catalog

STARLINK-2468

NORAD 48127 · 2021-027AM

PAYLOAD ACTIVE UNKNOWN

§ Identity

Operator
Country
US
Launch date
2021-04-07
Launch site
AFETR
Launch vehicle
Mass (kg)
RCS (m²)

Purposes: comms

External: N2YO · Heavens-Above · Gunter

§ Orbital elements

Epoch: 2026-09-04T01:37:54.958944Z

Period
94.01 min
Inclination
53.1611°
Eccentricity
0.0001143
Mean motion
15.31690830 rev/d
Perigee alt
470.0 km
Apogee alt
471.6 km
Semi-major
6,848.9 km
B*
-9.4164e-5
RAAN
55.2830°
Arg perigee
64.6343°
Mean anomaly
295.4777°
Rev number
29,984

§ Raw data

STARLINK-24681 48127U 21027AM  26247.06799721 -.00003285  00000+0 -94164-4 0  99932 48127  53.1611  55.2830 0001143  64.6343 295.4777 15.31690830299848

JSON: /api/v1/satellites/48127 · /tle

For live sub-satellite position, see the globe view (requires WebGL).

§ Visibility from observer

Set your observer location to see the next 7 days of passes ≥ 10°. The values pass through the URL so the page stays shareable.

No JS? Fill the form by hand. The geolocation button needs JavaScript.